EJU4761 LFRS-LPFR

Flight info

Callsign EJU4761
Flight time 1h 49m
Altitude 39000
Route ERIGA UZ218 FUJTI DCT BAKUP DCT BATAX DCT ELVAR DCT ALAGU
Aircraft A320/M-SDE2E3FGHIJ1RWXYZ/LB1

Departure

Time 2026-04-28 10:57
Airport Nantes Atlantique Airport (LFRS)

Arrival

Time 2026-04-28 12:46
Airport Faro - Gago Coutinho International Airport (LPFR)
Time Latitude Longitude Altitude Speed Heading
2026-04-28 10:49 47.15863 -1.60292 98 ft 3 kts 156°
2026-04-28 10:49 47.15867 -1.60297 98 ft 4 kts 102°
2026-04-28 10:49 47.15874 -1.60324 98 ft 4 kts 121°
2026-04-28 10:49 47.15890 -1.60354 96 ft 4 kts 151°
2026-04-28 10:50 47.15907 -1.60359 95 ft 1 kts 208°
2026-04-28 10:50 47.15908 -1.60359 95 ft 0 kts 208°
2026-04-28 10:51 47.15894 -1.60369 96 ft 9 kts 207°
2026-04-28 10:52 47.15785 -1.60451 100 ft 20 kts 207°
2026-04-28 10:52 47.15667 -1.60541 101 ft 18 kts 208°
2026-04-28 10:52 47.15561 -1.60622 103 ft 20 kts 207°
2026-04-28 10:52 47.15396 -1.60745 103 ft 28 kts 207°
2026-04-28 10:53 47.15222 -1.60878 100 ft 28 kts 208°
2026-04-28 10:53 47.15053 -1.61007 99 ft 28 kts 207°
2026-04-28 10:53 47.14882 -1.61138 100 ft 28 kts 207°
2026-04-28 10:53 47.14715 -1.61264 99 ft 25 kts 207°
2026-04-28 10:54 47.14563 -1.61381 96 ft 24 kts 207°
2026-04-28 10:54 47.14423 -1.61487 94 ft 21 kts 207°
2026-04-28 10:54 47.14287 -1.61591 92 ft 22 kts 207°
2026-04-28 10:54 47.14174 -1.61685 91 ft 14 kts 229°
2026-04-28 10:55 47.14142 -1.61815 92 ft 12 kts 255°
2026-04-28 10:55 47.14162 -1.61933 92 ft 12 kts 296°
2026-04-28 10:55 47.14199 -1.61922 90 ft 6 kts 31°
2026-04-28 10:55 47.14202 -1.61920 90 ft 0 kts 28°
2026-04-28 10:56 47.14215 -1.61909 89 ft 12 kts 28°
2026-04-28 10:56 47.14546 -1.61655 100 ft 95 kts 27°
2026-04-28 10:56 47.15357 -1.61040 101 ft 162 kts 27°
2026-04-28 10:56 47.16435 -1.60214 616 ft 182 kts 28°
2026-04-28 10:57 47.17656 -1.59761 1439 ft 191 kts 353°
2026-04-28 10:57 47.18819 -1.60760 2076 ft 208 kts 313°
2026-04-28 10:57 47.19561 -1.62725 2441 ft 233 kts 296°
2026-04-28 10:57 47.20162 -1.65091 2912 ft 259 kts 292°
2026-04-28 10:58 47.20770 -1.67655 3644 ft 269 kts 292°
2026-04-28 10:58 47.21423 -1.70270 4546 ft 273 kts 294°
2026-04-28 10:58 47.22122 -1.72895 5455 ft 278 kts 293°
2026-04-28 10:58 47.22394 -1.75698 6326 ft 288 kts 264°
2026-04-28 10:59 47.21725 -1.78499 7163 ft 292 kts 244°
2026-04-28 10:59 47.20797 -1.81175 8056 ft 293 kts 244°
2026-04-28 10:59 47.19865 -1.83803 8981 ft 292 kts 244°
2026-04-28 10:59 47.18929 -1.86433 10015 ft 289 kts 244°
2026-04-28 11:00 47.17986 -1.89094 10621 ft 302 kts 244°
2026-04-28 11:00 47.16980 -1.91952 10843 ft 325 kts 244°
2026-04-28 11:00 47.15918 -1.94980 11288 ft 336 kts 244°
2026-04-28 11:00 47.14822 -1.98010 11999 ft 341 kts 239°
2026-04-28 11:01 47.13281 -2.00690 12714 ft 346 kts 229°
2026-04-28 11:01 47.11660 -2.03314 13449 ft 348 kts 229°
2026-04-28 11:01 47.10013 -2.05931 14142 ft 350 kts 229°
2026-04-28 11:01 47.08348 -2.08577 14759 ft 354 kts 230°
2026-04-28 11:02 47.06674 -2.11260 15357 ft 358 kts 230°
2026-04-28 11:02 47.04987 -2.13993 15859 ft 364 kts 230°
2026-04-28 11:02 47.03315 -2.16733 16437 ft 367 kts 230°
2026-04-28 11:02 47.01611 -2.19538 17048 ft 369 kts 231°
2026-04-28 11:03 46.99896 -2.22359 17653 ft 371 kts 231°
2026-04-28 11:03 46.98170 -2.25193 18240 ft 374 kts 231°
2026-04-28 11:03 46.96320 -2.27899 18756 ft 378 kts 222°
2026-04-28 11:03 46.94132 -2.30098 19269 ft 384 kts 212°
2026-04-28 11:04 46.91759 -2.31911 19805 ft 385 kts 211°
2026-04-28 11:04 46.89395 -2.33708 20324 ft 386 kts 211°
2026-04-28 11:04 46.87002 -2.35529 20839 ft 388 kts 211°
2026-04-28 11:04 46.84614 -2.37396 21316 ft 389 kts 213°
2026-04-28 11:05 46.82269 -2.39380 21807 ft 390 kts 215°
2026-04-28 11:05 46.79944 -2.41443 22283 ft 391 kts 216°
2026-04-28 11:05 46.77658 -2.43515 22749 ft 393 kts 216°
2026-04-28 11:05 46.75334 -2.45623 23186 ft 395 kts 216°
2026-04-28 11:06 46.72979 -2.47734 23615 ft 398 kts 216°
2026-04-28 11:06 46.70599 -2.49836 23994 ft 400 kts 216°
2026-04-28 11:06 46.68206 -2.51927 24368 ft 401 kts 215°
2026-04-28 11:06 46.65801 -2.54015 24738 ft 403 kts 215°
2026-04-28 11:07 46.63392 -2.56105 25105 ft 404 kts 215°
2026-04-28 11:07 46.60964 -2.58213 25467 ft 405 kts 215°
2026-04-28 11:07 46.58565 -2.60296 25838 ft 407 kts 215°
2026-04-28 11:07 46.56131 -2.62406 26199 ft 408 kts 215°
2026-04-28 11:08 46.53693 -2.64518 26517 ft 409 kts 215°
2026-04-28 11:08 46.51237 -2.66650 26825 ft 412 kts 215°
2026-04-28 11:08 46.48773 -2.68794 27135 ft 413 kts 215°
2026-04-28 11:08 46.46301 -2.70940 27453 ft 415 kts 214°
2026-04-28 11:09 46.43815 -2.73089 27785 ft 416 kts 214°
2026-04-28 11:09 46.41330 -2.75234 28101 ft 417 kts 214°
2026-04-28 11:09 46.38825 -2.77390 28413 ft 418 kts 214°
2026-04-28 11:09 46.36319 -2.79543 28728 ft 420 kts 214°
2026-04-28 11:10 46.33805 -2.81702 29012 ft 421 kts 214°
2026-04-28 11:10 46.31274 -2.83877 29219 ft 423 kts 214°
2026-04-28 11:10 46.28739 -2.86050 29595 ft 423 kts 214°
2026-04-28 11:10 46.26207 -2.88218 30021 ft 421 kts 214°
2026-04-28 11:11 46.23698 -2.90381 30415 ft 419 kts 214°
2026-04-28 11:11 46.21204 -2.92551 30746 ft 418 kts 215°
2026-04-28 11:11 46.18738 -2.94708 31046 ft 418 kts 215°
2026-04-28 11:11 46.16252 -2.96886 31351 ft 417 kts 215°
2026-04-28 11:12 46.13764 -2.99062 31659 ft 417 kts 215°
2026-04-28 11:12 46.11275 -3.01231 31930 ft 417 kts 215°
2026-04-28 11:12 46.08796 -3.03387 32260 ft 416 kts 215°
2026-04-28 11:12 46.06323 -3.05530 32579 ft 415 kts 215°
2026-04-28 11:13 46.03846 -3.07668 32887 ft 414 kts 215°
2026-04-28 11:13 46.01375 -3.09798 33209 ft 414 kts 215°
2026-04-28 11:13 45.98908 -3.11922 33521 ft 413 kts 216°
2026-04-28 11:13 45.96443 -3.14046 33818 ft 413 kts 216°
2026-04-28 11:14 45.93982 -3.16171 34114 ft 412 kts 216°
2026-04-28 11:14 45.91518 -3.18295 34308 ft 414 kts 215°
2026-04-28 11:14 45.89046 -3.20424 34524 ft 415 kts 215°
2026-04-28 11:14 45.86568 -3.22555 34733 ft 415 kts 215°
2026-04-28 11:15 45.84084 -3.24685 34939 ft 416 kts 215°
2026-04-28 11:15 45.81587 -3.26824 35140 ft 417 kts 215°
2026-04-28 11:15 45.79088 -3.28964 35331 ft 418 kts 215°
2026-04-28 11:15 45.76629 -3.31064 35536 ft 419 kts 215°
2026-04-28 11:16 45.74113 -3.33211 35715 ft 419 kts 214°
2026-04-28 11:16 45.71604 -3.35352 35874 ft 420 kts 214°
2026-04-28 11:16 45.69099 -3.37487 36102 ft 419 kts 214°
2026-04-28 11:16 45.66587 -3.39625 36302 ft 419 kts 214°
2026-04-28 11:17 45.64078 -3.41759 36482 ft 420 kts 214°
2026-04-28 11:17 45.61568 -3.43896 36654 ft 420 kts 214°
2026-04-28 11:17 45.59053 -3.46032 36837 ft 421 kts 214°
2026-04-28 11:17 45.56531 -3.48173 36994 ft 421 kts 214°
2026-04-28 11:18 45.54009 -3.50309 37156 ft 422 kts 214°
2026-04-28 11:18 45.51482 -3.52454 37285 ft 423 kts 214°
2026-04-28 11:18 45.48949 -3.54594 37455 ft 423 kts 214°
2026-04-28 11:18 45.46412 -3.56733 37628 ft 423 kts 214°
2026-04-28 11:19 45.43879 -3.58869 37783 ft 423 kts 214°
2026-04-28 11:19 45.41341 -3.61010 37945 ft 424 kts 214°
2026-04-28 11:19 45.38807 -3.63145 38086 ft 424 kts 214°
2026-04-28 11:19 45.36264 -3.65286 38232 ft 425 kts 214°
2026-04-28 11:20 45.33711 -3.67433 38370 ft 425 kts 214°
2026-04-28 11:20 45.31163 -3.69570 38502 ft 425 kts 214°
2026-04-28 11:20 45.28616 -3.71704 38677 ft 425 kts 214°
2026-04-28 11:20 45.26065 -3.73837 38804 ft 425 kts 214°
2026-04-28 11:21 45.23519 -3.75962 38927 ft 424 kts 214°
2026-04-28 11:21 45.20968 -3.78090 39035 ft 425 kts 214°
2026-04-28 11:21 45.18417 -3.80223 39064 ft 427 kts 213°
2026-04-28 11:22 45.13325 -3.84472 39066 ft 428 kts 213°
2026-04-28 11:22 45.08188 -3.88744 39058 ft 427 kts 213°
2026-04-28 11:23 45.03067 -3.92991 39065 ft 426 kts 213°
2026-04-28 11:23 44.97943 -3.97229 39061 ft 426 kts 213°
2026-04-28 11:24 44.92820 -4.01460 39063 ft 426 kts 213°
2026-04-28 11:24 44.87738 -4.05659 39066 ft 426 kts 213°
2026-04-28 11:25 44.82625 -4.09875 39075 ft 425 kts 213°
2026-04-28 11:25 44.78351 -4.13387 39079 ft 425 kts 213°
2026-04-28 11:26 44.73253 -4.17578 39079 ft 424 kts 213°
2026-04-28 11:26 44.68153 -4.21750 39072 ft 424 kts 213°
2026-04-28 11:27 44.63053 -4.25908 39071 ft 424 kts 213°
2026-04-28 11:27 44.57950 -4.30068 39069 ft 424 kts 213°
2026-04-28 11:28 44.52854 -4.34208 39049 ft 423 kts 213°
2026-04-28 11:28 44.47786 -4.38315 39058 ft 423 kts 213°
2026-04-28 11:29 44.42701 -4.42428 39065 ft 422 kts 213°
2026-04-28 11:29 44.37635 -4.46589 39065 ft 421 kts 214°
2026-04-28 11:30 44.32633 -4.50860 39051 ft 421 kts 214°
2026-04-28 11:30 44.25136 -4.57265 39056 ft 421 kts 214°
2026-04-28 11:31 44.20120 -4.61495 39053 ft 421 kts 213°
2026-04-28 11:31 44.15095 -4.65717 39053 ft 422 kts 213°
2026-04-28 11:32 44.10068 -4.69930 39040 ft 422 kts 213°
2026-04-28 11:32 44.05033 -4.74139 39042 ft 422 kts 213°
2026-04-28 11:33 43.99997 -4.78353 39047 ft 422 kts 213°
2026-04-28 11:33 43.94957 -4.82560 39047 ft 423 kts 213°
2026-04-28 11:34 43.89915 -4.86756 39040 ft 423 kts 213°
2026-04-28 11:34 43.84901 -4.90926 39046 ft 423 kts 213°
2026-04-28 11:35 43.79853 -4.95120 39049 ft 423 kts 213°
2026-04-28 11:35 43.74797 -4.99305 39047 ft 424 kts 212°
2026-04-28 11:36 43.69731 -5.03493 39035 ft 424 kts 212°
2026-04-28 11:36 43.64658 -5.07670 39041 ft 425 kts 212°
2026-04-28 11:37 43.59570 -5.11853 39049 ft 425 kts 212°
2026-04-28 11:37 43.54479 -5.16043 39053 ft 426 kts 212°
2026-04-28 11:38 43.49392 -5.20226 39044 ft 426 kts 212°
2026-04-28 11:38 43.44292 -5.24399 39046 ft 426 kts 212°
2026-04-28 11:39 43.39183 -5.28572 39051 ft 427 kts 212°
2026-04-28 11:39 43.34102 -5.32698 39049 ft 427 kts 212°
2026-04-28 11:40 43.28990 -5.36854 39032 ft 427 kts 212°
2026-04-28 11:40 43.23874 -5.41017 39030 ft 427 kts 212°
2026-04-28 11:41 43.18749 -5.45169 39029 ft 428 kts 212°
2026-04-28 11:41 43.13613 -5.49323 39020 ft 428 kts 211°
2026-04-28 11:42 43.08484 -5.53453 39020 ft 428 kts 211°
2026-04-28 11:42 43.03378 -5.57567 39013 ft 428 kts 211°
2026-04-28 11:43 42.98208 -5.61726 39012 ft 429 kts 211°
2026-04-28 11:43 42.93097 -5.65819 39011 ft 429 kts 211°
2026-04-28 11:44 42.87943 -5.69938 39004 ft 429 kts 211°
2026-04-28 11:44 42.82800 -5.74058 39000 ft 429 kts 211°
2026-04-28 11:45 42.77646 -5.78176 39001 ft 429 kts 211°
2026-04-28 11:45 42.72481 -5.82284 39004 ft 430 kts 211°
2026-04-28 11:46 42.67305 -5.86383 39003 ft 430 kts 211°
2026-04-28 11:46 42.62132 -5.90481 39004 ft 431 kts 211°
2026-04-28 11:47 42.56958 -5.94582 39003 ft 431 kts 211°
2026-04-28 11:47 42.51774 -5.98680 38997 ft 431 kts 211°
2026-04-28 11:48 42.46604 -6.02762 38995 ft 431 kts 211°
2026-04-28 11:48 42.41412 -6.06849 38983 ft 431 kts 211°
2026-04-28 11:49 42.36218 -6.10912 38977 ft 431 kts 211°
2026-04-28 11:49 42.31064 -6.14947 38973 ft 431 kts 211°
2026-04-28 11:50 42.25880 -6.19009 38969 ft 431 kts 211°
2026-04-28 11:50 42.20685 -6.23072 38970 ft 432 kts 210°
2026-04-28 11:51 42.15485 -6.27119 38969 ft 432 kts 210°
2026-04-28 11:51 42.10281 -6.31169 38970 ft 432 kts 210°
2026-04-28 11:52 42.05080 -6.35207 38971 ft 432 kts 210°
2026-04-28 11:52 41.99872 -6.39241 38960 ft 432 kts 210°
2026-04-28 11:53 41.94666 -6.43273 38963 ft 432 kts 210°
2026-04-28 11:53 41.89455 -6.47290 38962 ft 432 kts 210°
2026-04-28 11:54 41.84247 -6.51298 38954 ft 432 kts 210°
2026-04-28 11:54 41.79026 -6.55312 38944 ft 432 kts 210°
2026-04-28 11:55 41.73805 -6.59315 38946 ft 432 kts 210°
2026-04-28 11:55 41.68467 -6.62994 38946 ft 432 kts 201°
2026-04-28 11:56 41.62821 -6.65789 38939 ft 433 kts 200°
2026-04-28 11:56 41.57167 -6.68562 38934 ft 433 kts 200°
2026-04-28 11:57 41.51522 -6.71328 38938 ft 433 kts 200°
2026-04-28 11:57 41.45908 -6.74092 38930 ft 433 kts 200°
2026-04-28 11:58 41.40256 -6.76874 38931 ft 433 kts 200°
2026-04-28 11:58 41.34600 -6.79642 38929 ft 433 kts 200°
2026-04-28 11:59 41.28941 -6.82404 38932 ft 432 kts 200°
2026-04-28 11:59 41.23301 -6.85152 38934 ft 432 kts 200°
2026-04-28 12:00 41.17657 -6.87902 38931 ft 432 kts 200°
2026-04-28 12:00 41.11995 -6.90655 38933 ft 433 kts 200°
2026-04-28 12:01 41.06344 -6.93396 38933 ft 433 kts 200°
2026-04-28 12:01 41.00690 -6.96129 38932 ft 432 kts 200°
2026-04-28 12:02 40.95040 -6.98861 38932 ft 432 kts 200°
2026-04-28 12:02 40.89382 -7.01590 38928 ft 432 kts 200°
2026-04-28 12:03 40.83729 -7.04313 38933 ft 432 kts 200°
2026-04-28 12:03 40.78082 -7.07029 38938 ft 432 kts 200°
2026-04-28 12:04 40.72462 -7.09726 38937 ft 432 kts 200°
2026-04-28 12:04 40.66814 -7.12423 38934 ft 432 kts 200°
2026-04-28 12:05 40.61169 -7.15127 38938 ft 432 kts 200°
2026-04-28 12:05 40.55527 -7.17827 38938 ft 432 kts 200°
2026-04-28 12:06 40.49884 -7.20515 38938 ft 431 kts 200°
2026-04-28 12:06 40.44234 -7.23192 38934 ft 432 kts 200°
2026-04-28 12:07 40.38584 -7.25874 38937 ft 432 kts 200°
2026-04-28 12:07 40.32932 -7.28556 38940 ft 432 kts 200°
2026-04-28 12:08 40.27272 -7.31225 38943 ft 432 kts 200°
2026-04-28 12:08 40.21613 -7.33893 38942 ft 432 kts 200°
2026-04-28 12:09 40.15955 -7.36561 38939 ft 432 kts 200°
2026-04-28 12:09 40.11257 -7.38776 38935 ft 432 kts 200°
2026-04-28 12:10 40.05601 -7.41438 38933 ft 432 kts 200°
2026-04-28 12:10 39.99940 -7.44085 38926 ft 432 kts 200°
2026-04-28 12:11 39.94280 -7.46728 38928 ft 432 kts 200°
2026-04-28 12:11 39.88618 -7.49374 38926 ft 432 kts 200°
2026-04-28 12:12 39.82957 -7.52019 38928 ft 432 kts 200°
2026-04-28 12:12 39.77297 -7.54664 38923 ft 432 kts 200°
2026-04-28 12:13 39.71635 -7.57298 38923 ft 432 kts 200°
2026-04-28 12:13 39.65978 -7.59922 38931 ft 432 kts 200°
2026-04-28 12:14 39.60316 -7.62546 38933 ft 431 kts 200°
2026-04-28 12:14 39.54667 -7.65157 38920 ft 431 kts 199°
2026-04-28 12:15 39.49006 -7.67770 38918 ft 432 kts 199°
2026-04-28 12:15 39.43375 -7.70366 38917 ft 432 kts 199°
2026-04-28 12:16 39.37671 -7.72988 38918 ft 433 kts 199°
2026-04-28 12:16 39.31992 -7.75588 38918 ft 433 kts 199°
2026-04-28 12:17 39.26312 -7.78191 38916 ft 433 kts 199°
2026-04-28 12:17 39.20670 -7.80781 38910 ft 433 kts 199°
2026-04-28 12:18 39.14874 -7.82860 38914 ft 433 kts 191°
2026-04-28 12:18 39.08958 -7.84350 38909 ft 433 kts 191°
2026-04-28 12:19 39.03040 -7.85835 38914 ft 433 kts 191°
2026-04-28 12:19 38.97127 -7.87313 38914 ft 433 kts 191°
2026-04-28 12:20 38.91216 -7.88790 38914 ft 433 kts 191°
2026-04-28 12:20 38.85298 -7.90271 38618 ft 432 kts 191°
2026-04-28 12:21 38.82353 -7.91003 38358 ft 431 kts 191°
2026-04-28 12:21 38.79405 -7.91736 38068 ft 430 kts 191°
2026-04-28 12:21 38.76466 -7.92471 37783 ft 430 kts 192°
2026-04-28 12:21 38.73537 -7.93204 37361 ft 429 kts 192°
2026-04-28 12:22 38.70614 -7.93934 36699 ft 428 kts 192°
2026-04-28 12:22 38.67689 -7.94663 36030 ft 427 kts 192°
2026-04-28 12:22 38.64762 -7.95390 35282 ft 429 kts 192°
2026-04-28 12:22 38.61819 -7.96119 34450 ft 432 kts 192°
2026-04-28 12:23 38.58857 -7.96849 33569 ft 436 kts 192°
2026-04-28 12:23 38.55868 -7.97583 32635 ft 438 kts 192°
2026-04-28 12:23 38.52908 -7.98309 31917 ft 437 kts 192°
2026-04-28 12:23 38.49951 -7.99035 31373 ft 431 kts 192°
2026-04-28 12:24 38.47020 -7.99758 30779 ft 426 kts 192°
2026-04-28 12:24 38.44124 -8.00477 30198 ft 422 kts 192°
2026-04-28 12:24 38.41267 -8.01187 29580 ft 418 kts 192°
2026-04-28 12:24 38.38418 -8.01892 29015 ft 413 kts 192°
2026-04-28 12:25 38.35616 -8.02582 28457 ft 407 kts 192°
2026-04-28 12:25 38.32847 -8.03262 27910 ft 403 kts 192°
2026-04-28 12:25 38.30109 -8.03932 27370 ft 398 kts 192°
2026-04-28 12:25 38.27401 -8.04592 26838 ft 394 kts 192°
2026-04-28 12:26 38.24721 -8.05247 26312 ft 390 kts 192°
2026-04-28 12:26 38.22069 -8.05899 25803 ft 386 kts 192°
2026-04-28 12:26 38.19444 -8.06542 25298 ft 382 kts 191°
2026-04-28 12:26 38.16849 -8.07176 24811 ft 379 kts 191°
2026-04-28 12:27 38.14267 -8.07806 24327 ft 375 kts 191°
2026-04-28 12:27 38.11718 -8.08426 23873 ft 372 kts 191°
2026-04-28 12:27 38.09191 -8.09044 23409 ft 368 kts 191°
2026-04-28 12:27 38.06684 -8.09656 22934 ft 364 kts 191°
2026-04-28 12:28 38.04216 -8.10259 22506 ft 359 kts 191°
2026-04-28 12:28 38.01776 -8.10858 22082 ft 355 kts 191°
2026-04-28 12:28 37.99366 -8.11450 21662 ft 351 kts 191°
2026-04-28 12:28 37.96980 -8.12030 21250 ft 347 kts 191°
2026-04-28 12:29 37.92310 -8.13161 20423 ft 342 kts 191°
2026-04-28 12:29 37.89973 -8.13728 19984 ft 340 kts 191°
2026-04-28 12:29 37.87656 -8.14291 19556 ft 338 kts 191°
2026-04-28 12:30 37.85352 -8.14850 19123 ft 337 kts 191°
2026-04-28 12:30 37.83055 -8.15408 18686 ft 335 kts 191°
2026-04-28 12:30 37.80766 -8.15963 18248 ft 335 kts 191°
2026-04-28 12:30 37.78455 -8.16443 17649 ft 338 kts 188°
2026-04-28 12:31 37.76132 -8.16810 17203 ft 335 kts 187°
2026-04-28 12:31 37.73815 -8.17122 16763 ft 333 kts 186°
2026-04-28 12:31 37.71521 -8.17419 16333 ft 331 kts 186°
2026-04-28 12:31 37.69237 -8.17722 15906 ft 329 kts 187°
2026-04-28 12:32 37.66969 -8.18036 15472 ft 327 kts 187°
2026-04-28 12:32 37.64710 -8.18357 15042 ft 326 kts 187°
2026-04-28 12:32 37.62463 -8.18683 14620 ft 324 kts 187°
2026-04-28 12:32 37.60224 -8.19011 14204 ft 324 kts 187°
2026-04-28 12:33 37.57992 -8.19338 13777 ft 323 kts 187°
2026-04-28 12:33 37.55764 -8.19665 13311 ft 322 kts 187°
2026-04-28 12:33 37.53544 -8.19991 12871 ft 320 kts 187°
2026-04-28 12:33 37.51345 -8.20315 12441 ft 317 kts 187°
2026-04-28 12:34 37.49157 -8.20638 12002 ft 316 kts 187°
2026-04-28 12:34 37.46978 -8.20957 11561 ft 315 kts 187°
2026-04-28 12:34 37.44804 -8.21271 11120 ft 314 kts 187°
2026-04-28 12:34 37.42648 -8.21582 10674 ft 313 kts 187°
2026-04-28 12:35 37.40490 -8.21893 10295 ft 309 kts 187°
2026-04-28 12:35 37.38386 -8.22196 10173 ft 298 kts 187°
2026-04-28 12:35 37.36364 -8.22486 10048 ft 287 kts 187°
2026-04-28 12:35 37.34406 -8.22768 9891 ft 280 kts 187°
2026-04-28 12:36 37.32480 -8.23047 9756 ft 279 kts 188°
2026-04-28 12:36 37.30529 -8.23333 9118 ft 280 kts 187°
2026-04-28 12:36 37.28617 -8.23611 8560 ft 274 kts 187°
2026-04-28 12:36 37.26730 -8.23887 7899 ft 273 kts 187°
2026-04-28 12:37 37.24845 -8.24160 7303 ft 274 kts 186°
2026-04-28 12:37 37.22929 -8.24438 6718 ft 276 kts 186°
2026-04-28 12:37 37.21065 -8.24710 6465 ft 260 kts 185°
2026-04-28 12:37 37.19316 -8.24966 6172 ft 248 kts 185°
2026-04-28 12:38 37.17613 -8.25214 5706 ft 245 kts 184°
2026-04-28 12:38 37.15918 -8.25459 5192 ft 243 kts 183°
2026-04-28 12:38 37.14306 -8.25695 5075 ft 224 kts 184°
2026-04-28 12:38 37.12790 -8.25917 4978 ft 214 kts 183°
2026-04-28 12:39 37.11342 -8.26126 4885 ft 206 kts 183°
2026-04-28 12:39 37.09941 -8.26326 4798 ft 199 kts 183°
2026-04-28 12:39 37.08577 -8.26519 4706 ft 196 kts 184°
2026-04-28 12:39 37.07221 -8.26634 4513 ft 195 kts 168°
2026-04-28 12:40 37.06028 -8.25951 4265 ft 187 kts 133°
2026-04-28 12:40 37.05380 -8.24590 4063 ft 183 kts 102°
2026-04-28 12:40 37.05152 -8.23031 3847 ft 182 kts 99°
2026-04-28 12:40 37.04941 -8.21478 3605 ft 184 kts 99°
2026-04-28 12:41 37.04721 -8.19890 3367 ft 186 kts 100°
2026-04-28 12:41 37.04499 -8.18299 3139 ft 183 kts 100°
2026-04-28 12:41 37.04283 -8.16753 2880 ft 177 kts 100°
2026-04-28 12:41 37.04077 -8.15284 2658 ft 165 kts 101°
2026-04-28 12:42 37.03891 -8.13956 2447 ft 147 kts 101°
2026-04-28 12:42 37.03721 -8.12742 2253 ft 137 kts 100°
2026-04-28 12:42 37.03557 -8.11580 2073 ft 134 kts 100°
2026-04-28 12:42 37.03395 -8.10426 1896 ft 135 kts 99°
2026-04-28 12:43 37.03233 -8.09273 1723 ft 135 kts 100°
2026-04-28 12:43 37.03074 -8.08145 1548 ft 133 kts 100°
2026-04-28 12:43 37.02914 -8.07007 1369 ft 132 kts 99°
2026-04-28 12:43 37.02754 -8.05872 1195 ft 132 kts 99°
2026-04-28 12:44 37.02593 -8.04730 1019 ft 133 kts 98°
2026-04-28 12:44 37.02433 -8.03596 840 ft 133 kts 99°
2026-04-28 12:44 37.02273 -8.02462 664 ft 133 kts 99°
2026-04-28 12:44 37.02112 -8.01332 497 ft 132 kts 101°
2026-04-28 12:45 37.01957 -8.00200 361 ft 132 kts 98°
2026-04-28 12:45 37.01796 -7.99064 158 ft 132 kts 99°
2026-04-28 12:45 37.01638 -7.97948 29 ft 123 kts 99°
2026-04-28 12:45 37.01521 -7.97114 20 ft 58 kts 100°
2026-04-28 12:46 37.01480 -7.96828 22 ft 27 kts 100°
2026-04-28 12:46 37.01448 -7.96598 21 ft 30 kts 99°
2026-04-28 12:46 37.01439 -7.96315 22 ft 31 kts 78°
2026-04-28 12:46 37.01502 -7.96122 20 ft 12 kts 33°
2026-04-28 12:47 37.01565 -7.96153 20 ft 10 kts 285°
2026-04-28 12:47 37.01577 -7.96235 20 ft 9 kts 280°
2026-04-28 12:47 37.01587 -7.96308 21 ft 8 kts 280°
2026-04-28 12:47 37.01599 -7.96392 20 ft 13 kts 279°
2026-04-28 12:48 37.01618 -7.96519 20 ft 15 kts 281°
2026-04-28 12:48 37.01635 -7.96639 20 ft 13 kts 279°
2026-04-28 12:48 37.01650 -7.96748 20 ft 12 kts 280°
2026-04-28 12:48 37.01665 -7.96851 20 ft 11 kts 280°
2026-04-28 12:49 37.01698 -7.96902 20 ft 7 kts 349°
2026-04-28 12:49 37.01744 -7.96895 20 ft 6 kts 10°
2026-04-28 12:49 37.01809 -7.96881 20 ft 14 kts
2026-04-28 12:49 37.01857 -7.96922 20 ft 6 kts 343°
2026-04-28 12:50 37.01893 -7.96914 20 ft 5 kts
2026-04-28 12:50 37.01915 -7.96910 20 ft 2 kts
2026-04-28 12:50 37.01925 -7.96908 20 ft 1 kts 10°
2026-04-28 12:50 37.01926 -7.96908 20 ft 0 kts 10°